Погода в Юнаковке

Украина / Сумская область     51°07′13″N   35°02′14″E
темп.,
°C
ветер,
м/с
пор.,
м/с
влажн.,
%
обл.,
%
осадки,
мм/ч
давл.,
гПа
погр.,
м
20 апреля, вт
вт2000:00+7св2483100 0.0 1014109
03:00+7всв2493100 0.1 1013134
06:00+6св369790 0.0 1011195
09:00+7всв3894100 0.3 1011382
12:00+8всв4993100 0.6 1009431
15:00+9всв3691100 0.9 1007492
18:00+10всв5984100 0.2 1005671
21:00+7св5989100 0.2 1005584
21 апреля, ср
ср2100:00+6ссв4793100 0.3 1005442
03:00+6ссз3593100 0.3 1005406
06:00+5сз2493100 0.0 1007335
09:00+6з1291100 0.3 1009259
12:00+6зюз2391100 0.2 1010420
15:00+5з4793100 0.5 1012775
18:00+5зюз4893100 0.1 1014759
21:00+4з249285 0.2 1016293
22 апреля, чт
чт2200:00+3ю129670 0.0 101733
03:00+4ююв229373 0.0 101750
06:00+4ю269225 0.0 1017138
09:00+9ююз487788 0.0 1018366
12:00+12ююз477090 0.3 1018747
15:00+15юз5958100 1.6 10171574
18:00+13ююз396842 0.8 1017381
21:00+10ю3108137 0.8 1018198
23 апреля, пт
пт2300:00+11ю4127388 0.0 1018332
03:00+10ю4127796 0.0 1018347
06:00+8ю310855 0.0 1018262
09:00+12ю511673 0.0 1017712
12:00+16ю710575 0.1 10161483
15:00+16ююз6115895 2.0 10141921
18:00+11юз71187100 4.4 1013999
21:00+8зсз2495100 13.8 1014257
24 апреля, сб
сб2400:00+5зсз5794100 2.9 1014519
03:00+5зсз4790100 3.0 1014640
06:00+3з389533 0.0 1015390
09:00+6з467833 0.0 1015819
12:00+9з575243 0.2 10151979
15:00+9зюз695595 0.6 10151755
18:00+8з576585 1.1 10151269
21:00+4зюз278263 1.4 1016166